Погода в Вязьме

Поиск расширенной информации на нашем сайте:

Полезная информация:

Новости сайта



02.01.2020
Опубликован Долгосрочный прогноз погоды по городам России и ближнего зарубежья на январь 2020 года.
Карты: Прогноз на январь и февраль 2020 года, Сравнение прогнозируемой аномалии приземной температуры воздуха на январь 2020 года по разным моделям.




Погода в Вязьме - сегодня

Время (UTC), дата Ветер
(°,м/с) 
Видим.   Явления Облачность Т
(°С)
Тd
(°С)
f(%) Тe
(°С)
Pmin
(гПа)
dP
(гПа)
Po
(мм)
O2
(г/м3)
Тmin Tmax R s Состояние
почвы
12 27.03.20 050 (СВ) 10 км    8/0 верхняя 
[Cc]
+15.7 -11.8 14 +17  1032  -1.5  752  287           
15 27.03.20 040 (СВ) 10 км    9/0 верхняя 
[Cc]
+13.6 -8.6 21 +14  1030.1  -2.1  750  289           
18 27.03.20 070 (В) 10 км    3/0 верхняя 
[Ci fib]
+7.4 -7.9 33 +8  1029.9  -0.9  750  295    +15.9       
21 27.03.20 тихо ()   10 км    ясно 
+0.7 -6.2 60 +1  1029.6  -0.9  749  302           
00 28.03.20 тихо ()   10 км    ясно 
-1.4 -5.9 71 -1  1028.5  -1.3  748  304           
03 28.03.20 тихо ()   10 км    ясно 
-2.2 -5.1 80 -2  1027  -1.5  747  304  -2.9         
06 28.03.20 140 (ЮВ) 10 км    4/0 верхняя 
[Cc]
+6 -3.5 50 +6  1024.7  -1.3  746  294  -3.4         
09 28.03.20 190 (Ю) 10 км    8/0 верхняя 
[Cc]
+13.9 -2.3 33 +14  1021.9  -1.9  744  286           
12 28.03.20 210 (ЮЗ) 10 км    8/0 верхняя 
[Cc]
+16.4 -4.7 23 +17  1019  -2.6  742  283           
15 28.03.20 190 (Ю) 10 км    9/0 верхняя 
[Cc]
+15.5 -5.2 24 +16  1016.2  -2.7  740  283           
18 28.03.20 тихо ()   10 км    3/0 верхняя 
[Ci fib]
+6.1 -3.5 50 +6  1016.3  -0.9  740  292    +16.9       
21 28.03.20 тихо ()   10 км    ясно 
+1.6 -3.3 70 +2  1015.5  -1.2  739  296           
00 29.03.20 150 (ЮВ) 10 км    4/0 средняя 
[Ac trans]
+1.4 -1.9 79 +2  1014  -1.5  738  296           
03 29.03.20 160 (Ю) 10 км    10/0 средняя 
[Ac und]
+1.1 -2.9 75 +2  1012.1  -1.9  736  296  +1         
06 29.03.20 160 (Ю) 10 км    9/0 средняя, верхняя 
[Ac trans|Ci fib]
+6.5 -2.8 51 +7  1010.6  -0.9  735  290  +1         
09 29.03.20 200 (Ю) 10 км    9/0 верхняя 
[Ci fib]
+15 -4.4 26 +16  1008.3  -1.3  734  281           
12 29.03.20 190 (Ю) 10 км    9/4 600 м средняя, верхняя 
[Sc|Ac trans|Ci fib]
+15.8 -7.1 20 +16  1006.4  -1.8  733  280           
15 29.03.20 250 (З) 10 км    10/4 600 м средняя 
[Sc|Ac und]
+14.5 -4.6 26 +16  1004.9  -1.6  732  280           
18 29.03.20 360 (С) 10 км    10/10 600 м 
[Sc]
+8.6 -3.3 43 +7  1006.5  733  287    +16.6       
21 29.03.20 010 (С) 4{11}  10 км    9/9 600 м 
[Sc]
+3.6 -2.2 66 +2  1007.2  0.2  733  292           
00 30.03.20 010 (С) 5-10{10}  10 км    10/10 600 м 
[Sc]
+0.6 -2.6 79 -2  1008  0.5  733  295           
03 30.03.20 010 (С) 5{11}  10 км    10/10 600 м 
[Sc]
-1.6 -3.9 84 -5  1008.6  0.3  733  298  -1.6         
06 30.03.20 020 (С) 4{12}  4000 м  слаб. снег  10/8 600 м средняя 
[Sc|As op]
-2.4 -5 82 -5  1010.1  1.4  734  299  -2.5    0.0     
09 30.03.20 010 (С) 5{10}  4000 м  слаб. снег  10/6 600 м средняя 
[Sc|As trans]
-2.5 -4.2 88 -6  1011  0.9  735  299           
12 30.03.20 020 (С) 4{11}  4000 м  слаб. снег  10/8 300 м средняя 
[Sc|As op]
-1.4 -4.4 80 -4  1012  1.1  736  298           
Время (UTC), дата Ветер
(°,м/с) 
Видим.   Явления Облачность Т
(°С)
Тd
(°С)
f(%) Тe
(°С)
Pmin
(гПа)
dP
(гПа)
Po
(мм)
O2
(г/м3)
Тmin Tmax R s Состояние
почвы

Для получения пояснительной информации подведите курсор к названию столбца.

ПОГОДА в Вязьме - архив

Всё, что Вы хотите узнать о погоде в Вязьме - удобно и подробно!

Выберите нужную дату (начиная с 1 января 2019* года) и нажмите кнопку "Найти".
Будут отображены архивные сводки погоды по пункту Вязьма, начиная с указанной даты.


Отображать данные в формате CSV (для использования в таблицах Excel)


Внимание! Наш архив погоды предназначен исключительно для личного некоммерческого использования в познавательных целях. Если Вам необходимы официальные справки о состоянии погоды (для производственных, юридических, коммерческих и т.п. целей), обращайтесь в органы Росгидромета.

*Примечание: данная дата относится к архиву по метеостанциям СССР (Россия, СНГ, Балтия).
Архив по метеостанциям Зарубежной Европы и Азии (кроме Китая) хранится 10 дней, по другим регионам земного шара (Китай, Африка, Америка, Австралия, Океания) - 1 день.

Вязьма - район местоположения метеостанции


Название, широта, долгота, высота метеостанции:
Вязьма 55.2°ш. 34.4°д. 251 м над ур. моря [Российская Федерация]

Дополнительная информация

В oтличие oт бoльшинства пoгoдных сайтoв мы публикуем пoдрoбную метеoинфoрмацию в детальнoм прoфессиoнальнoм фoрмате.

Характеристики температуры и влажнoсти вoздуха измеряются на высoте 2 м в тени вдали oт зданий и деревьев.
Скoрoсть ветра измеряется на высoте 10 м (на урoвне рoста челoвека скoрoсть ветра ниже в 1.5-2 раза). Если метеoстанция нахoдится в гoрoде или в лесу, тo скoрoсть ветра занижена на 2-4 м/с пo сравнению с oткрытым местoм. Скoрoсть ветра над акватoриями крупных рек и oзёр, а также на вершинах хoлмoв на 2-5 м/с выше, чем в oбычных услoвиях.
Атмoсфернoе давление в разных тoчках местнoсти мoжет значительнo oтличаться oт давления на метеoстанции, в зависимoсти oт услoвий рельефа (при пoдъёме на 10 м давление пoнижается примернo на 1 мм рт.ст.).